DW9372 Weather Reports


time (UTC)temp
C
wind
direction
speed
KPH
gust
KPH
rain 1hr
cm
rain 24hr
cm
rain mn
cm
humidity
%
barometer
mb
20260504014558 10 228 0.0 0.0 0.00 0.00 0.00 50 1012.6
20260504014056 10 225 1.6 3.2 0.00 0.00 0.00 48 1012.5
20260504013553 11 225 0.0 3.2 0.00 0.00 0.00 48 1012.4
20260504013050 11 233 0.0 1.6 0.00 0.00 0.00 48 1012.3
20260504012547 11 237 0.0 1.6 0.00 0.00 0.00 47 1012.6
20260504012045 11 220 1.6 3.2 0.00 0.00 0.00 46 1012.4
20260504011542 11 259 4.8 6.4 0.00 0.00 0.00 45 1012.4
20260504011038 11 206 3.2 3.2 0.00 0.00 0.00 45 1012.4
20260504010533 12 252 3.2 4.8 0.00 0.00 0.00 44 1012.4
20260504010030 12 225 0.0 3.2 0.00 0.00 0.00 45 1012.3
20260504005527 12 214 1.6 4.8 0.00 0.00 0.00 44 1012.3
20260504005024 12 232 1.6 4.8 0.00 0.00 0.00 44 1012.4
20260504004522 12 207 3.2 6.4 0.00 0.00 0.00 43 1012.1
20260504004018 12 221 4.8 9.7 0.00 0.00 0.00 43 1012.4
20260504003509 12 221 3.2 4.8 0.00 0.00 0.00 43 1012.3
20260504003006 13 235 3.2 4.8 0.00 0.00 0.00 42 1012.3
20260504002503 13 257 4.8 6.4 0.00 0.00 0.00 41 1012.4
20260504002000 13 227 4.8 6.4 0.00 0.00 0.00 41 1012.3
20260504001457 13 190 3.2 4.8 0.00 0.00 0.00 40 1012.3
20260504000954 13 213 3.2 11.3 0.00 0.00 0.00 40 1012.3
20260504000451 13 284 3.2 11.3 0.00 0.00 0.00 40 1012.3
20260503235948 13 231 4.8 11.3 0.00 0.00 0.00 39 1012.3
20260503235446 13 234 4.8 6.4 0.00 0.00 0.00 39 1012.5
20260503234943 13 239 4.8 6.4 0.00 0.00 0.00 39 1012.3
20260503234440 13 251 1.6 9.7 0.00 0.00 0.00 39 1012.2
20260503233939 13 265 4.8 9.7 0.00 0.00 0.00 38 1012.3
20260503233435 13 265 4.8 9.7 0.00 0.00 0.00 39 1012.3
20260503232931 13 239 3.2 6.4 0.00 0.00 0.00 38 1012.2
20260503232428 14 250 4.8 11.3 0.00 0.00 0.00 38 1012.5
20260503231926 14 266 4.8 11.3 0.00 0.00 0.00 38 1012.2
20260503231423 14 207 11.3 14.5 0.00 0.00 0.00 37 1012.3
20260503230920 14 253 1.6 4.8 0.00 0.00 0.00 40 1012.4
20260503230416 14 245 8.0 11.3 0.00 0.00 0.00 37 1012.3
20260503225914 14 196 1.6 3.2 0.00 0.00 0.00 39 1012.4
20260503225410 14 291 8.0 14.5 0.00 0.00 0.00 37 1012.6
20260503224906 14 256 6.4 14.5 0.00 0.00 0.00 37 1012.6
20260503224403 14 230 4.8 6.4 0.00 0.00 0.00 38 1012.5
20260503223901 15 247 4.8 14.5 0.00 0.00 0.00 37 1012.4
20260503223359 15 260 8.0 16.1 0.00 0.00 0.00 36 1012.5
20260503222854 15 309 6.4 22.5 0.00 0.00 0.00 37 1012.5
20260503222353 15 232 6.4 16.1 0.00 0.00 0.00 36 1012.6
20260503221850 15 227 6.4 11.3 0.00 0.00 0.00 38 1012.7
20260503221349 15 276 6.4 12.9 0.00 0.00 0.00 37 1012.6
20260503220844 15 236 6.4 9.7 0.00 0.00 0.00 37 1012.5
20260503220341 15 235 6.4 11.3 0.00 0.00 0.00 37 1012.4
20260503215838 15 184 8.0 17.7 0.00 0.00 0.00 36 1012.6
20260503215336 15 265 3.2 20.9 0.00 0.00 0.00 38 1012.8
20260503214833 15 294 3.2 9.7 0.00 0.00 0.00 38 1012.5
20260503214330 15 239 9.7 14.5 0.00 0.00 0.00 36 1012.7
20260503213828 15 255 11.3 22.5 0.00 0.00 0.00 35 1012.3
20260503213325 15 237 4.8 20.9 0.00 0.00 0.00 36 1012.7
20260503212822 15 197 8.0 14.5 0.00 0.00 0.00 36 1012.7
20260503212320 15 288 8.0 16.1 0.00 0.00 0.00 35 1012.3
20260503211817 16 234 9.7 16.1 0.00 0.00 0.00 35 1012.4
20260503211314 16 239 19.3 24.1 0.00 0.00 0.00 34 1012.3
20260503210813 15 252 9.7 17.7 0.00 0.00 0.00 36 1012.4
20260503210311 15 229 3.2 20.9 0.00 0.00 0.00 36 1012.2
20260503205805 15 292 6.4 11.3 0.00 0.00 0.00 35 1012.6
20260503205304 15 286 4.8 20.9 0.00 0.00 0.00 35 1012.4
20260503204753 15 175 8.0 20.9 0.00 0.00 0.00 34 1012.4
20260503204251 15 265 3.2 12.9 0.00 0.00 0.00 35 1012.5
20260503203749 15 224 1.6 9.7 0.00 0.00 0.00 36 1012.6
20260503203246 15 226 3.2 9.7 0.00 0.00 0.00 34 1012.6
20260503202743 15 236 6.4 16.1 0.00 0.00 0.00 34 1012.8
20260503202241 15 277 4.8 11.3 0.00 0.00 0.00 36 1012.7
20260503201738 16 232 6.4 12.9 0.00 0.00 0.00 33 1012.6
20260503201236 15 264 9.7 11.3 0.00 0.00 0.00 34 1012.8
20260503200732 16 214 8.0 20.9 0.00 0.00 0.00 34 1013.2
20260503200228 16 236 12.9 16.1 0.00 0.00 0.00 33 1012.8
20260503195725 16 252 6.4 9.7 0.00 0.00 0.00 36 1013.2
20260503195222 15 231 4.8 12.9 0.00 0.00 0.00 36 1013.3
20260503194720 16 77 3.2 11.3 0.00 0.00 0.00 36 1013.3
20260503194215 16 322 8.0 12.9 0.00 0.00 0.00 33 1013.3
20260503193712 16 255 4.8 11.3 0.00 0.00 0.00 35 1013.5
20260503193208 16 290 9.7 16.1 0.00 0.00 0.00 34 1013.6
20260503192703 16 287 8.0 20.9 0.00 0.00 0.00 32 1013.4
20260503192159 16 292 8.0 16.1 0.00 0.00 0.00 32 1013.6
20260503191655 16 189 11.3 20.9 0.00 0.00 0.00 33 1013.7
20260503191153 16 241 6.4 14.5 0.00 0.00 0.00 37 1013.8
20260503190650 16 322 11.3 17.7 0.00 0.00 0.00 35 1013.8
20260503190147 15 289 4.8 12.9 0.00 0.00 0.00 38 1013.9
20260503185643 16 260 8.0 16.1 0.00 0.00 0.00 34 1013.9
20260503185138 15 274 9.7 11.3 0.00 0.00 0.00 35 1014.0
20260503184634 15 246 6.4 12.9 0.00 0.00 0.00 35 1014.4
20260503184130 16 260 9.7 22.5 0.00 0.00 0.00 35 1014.3
20260503183627 15 212 6.4 12.9 0.00 0.00 0.00 35 1014.3
20260503183124 15 275 6.4 12.9 0.00 0.00 0.00 35 1014.5
20260503182622 16 245 11.3 17.7 0.00 0.00 0.00 34 1014.4
20260503182121 16 266 4.8 11.3 0.00 0.00 0.00 38 1014.1
20260503181617 15 288 6.4 17.7 0.00 0.00 0.00 38 1014.4
20260503181114 15 239 11.3 16.1 0.00 0.00 0.00 34 1014.3
20260503180611 16 231 8.0 12.9 0.00 0.00 0.00 35 1014.4
20260503180109 15 185 6.4 16.1 0.00 0.00 0.00 38 1014.7
20260503175605 15 240 4.8 9.7 0.00 0.00 0.00 37 1014.5
20260503175103 14 234 8.0 14.5 0.00 0.00 0.00 37 1014.7
20260503174559 15 264 9.7 16.1 0.00 0.00 0.00 38 1014.8
20260503174056 15 345 9.7 22.5 0.00 0.00 0.00 34 1014.7
20260503173551 15 291 3.2 22.5 0.00 0.00 0.00 44 1014.6
20260503173048 15 259 12.9 17.7 0.00 0.00 0.00 39 1015.0
20260503172545 15 308 9.7 12.9 0.00 0.00 0.00 41 1014.9
20260503172042 14 259 8.0 20.9 0.00 0.00 0.00 39 1015.1
20260503171538 14 275 6.4 11.3 0.00 0.00 0.00 38 1015.1
20260503171036 14 234 6.4 11.3 0.00 0.00 0.00 38 1015.3
20260503170532 14 270 8.0 16.1 0.00 0.00 0.00 38 1015.4
20260503150925 12 261 6.4 12.9 0.00 0.00 0.00 38 1016.3
20260503150421 12 261 6.4 16.1 0.00 0.00 0.00 36 1016.2
20260503131314 8 218 6.4 9.7 0.00 0.00 0.00 49 1017.0
20260503130812 8 316 6.4 11.3 0.00 0.00 0.00 52 1016.9
20260503130309 8 234 3.2 6.4 0.00 0.00 0.00 52 1017.0
20260503110657 0 241 0.0 0.0 0.00 0.00 0.00 99 1016.3
20260503110154 0 241 0.0 0.0 0.00 0.00 0.00 99 1016.3
20260503100120 -1 243 0.0 0.0 0.00 0.00 0.00 99 1016.2
20260503081458 -1 243 0.0 0.0 0.00 0.00 0.00 98 1016.1
20260503080955 -1 243 0.0 0.0 0.00 0.00 0.00 97 1016.4
20260503080451 -1 243 0.0 0.0 0.00 0.00 0.00 97 1016.2
20260503072928 0 243 0.0 0.0 0.00 0.00 0.00 97 1016.0
20260503072425 0 243 0.0 0.0 0.00 0.00 0.00 97 1015.9
20260503071922 0 243 0.0 0.0 0.00 0.00 0.00 96 1016.0
20260503071419 0 243 0.0 0.0 0.00 0.00 0.00 96 1016.1
20260503070915 0 243 0.0 0.0 0.00 0.00 0.00 96 1015.8
20260503070412 0 243 0.0 0.0 0.00 0.00 0.00 96 1016.1
20260503060332 0 243 0.0 0.0 0.00 0.00 0.00 94 1016.4
20260503054820 1 243 0.0 0.0 0.00 0.00 0.00 94 1016.5
20260503054316 1 243 0.0 0.0 0.00 0.00 0.00 93 1016.5
20260503053814 1 243 0.0 0.0 0.00 0.00 0.00 93 1016.5
20260503053312 1 243 0.0 0.0 0.00 0.00 0.00 93 1016.4
20260503052808 1 243 0.0 0.0 0.00 0.00 0.00 93 1016.4
20260503052306 1 243 0.0 0.0 0.00 0.00 0.00 93 1016.5
20260503051801 1 243 0.0 0.0 0.00 0.00 0.00 93 1016.7
20260503051258 2 243 0.0 0.0 0.00 0.00 0.00 93 1016.5
20260503050754 2 243 0.0 0.0 0.00 0.00 0.00 93 1016.5
20260503050251 2 243 0.0 0.0 0.00 0.00 0.00 93 1016.4
20260503045748 2 243 0.0 0.0 0.00 0.00 0.00 93 1016.5
20260503045246 2 243 0.0 0.0 0.00 0.00 0.00 92 1016.8
20260503044741 2 243 0.0 0.0 0.00 0.00 0.00 92 1016.7
20260503044239 2 243 0.0 0.0 0.00 0.00 0.00 92 1016.8
20260503043736 2 243 0.0 0.0 0.00 0.00 0.00 91 1016.5
20260503043228 2 243 0.0 0.0 0.00 0.00 0.00 91 1016.7
20260503042723 2 243 0.0 0.0 0.00 0.00 0.00 91 1016.7
20260503042221 2 243 0.0 0.0 0.00 0.00 0.00 91 1016.9
20260503041716 2 243 0.0 0.0 0.00 0.00 0.00 91 1016.8
20260503041215 2 243 0.0 0.0 0.00 0.00 0.00 91 1016.7
20260503040712 2 243 0.0 0.0 0.00 0.00 0.00 91 1016.7
20260503040209 2 242 0.0 0.0 0.00 0.00 0.00 91 1016.8
20260503035706 2 243 0.0 0.0 0.00 0.28 0.28 91 1016.8
20260503035203 2 243 0.0 0.0 0.00 0.28 0.28 91 1016.8
20260503034701 2 242 0.0 0.0 0.00 0.28 0.28 91 1017.1
20260503034157 2 242 0.0 0.0 0.00 0.28 0.28 91 1017.1
20260503033655 2 243 0.0 0.0 0.00 0.28 0.28 91 1016.9
20260503033152 2 242 0.0 0.0 0.00 0.28 0.28 90 1016.9
20260503032650 2 243 0.0 0.0 0.00 0.28 0.28 90 1017.0
20260503032149 2 243 0.0 0.0 0.00 0.28 0.28 90 1017.0
20260503031645 2 243 0.0 0.0 0.00 0.28 0.28 90 1017.0
20260503031143 2 242 0.0 0.0 0.00 0.28 0.28 90 1016.9
20260503030639 2 242 0.0 0.0 0.00 0.28 0.28 90 1017.2
20260503030136 2 242 0.0 0.0 0.00 0.28 0.28 90 1017.3
20260503025632 2 242 0.0 0.0 0.00 0.28 0.28 90 1016.9
20260503025131 2 242 0.0 0.0 0.00 0.28 0.28 90 1017.1
20260503024627 2 251 0.0 0.0 0.00 0.28 0.28 90 1017.2
20260503024124 2 251 0.0 0.0 0.00 0.28 0.28 89 1017.3
20260503023621 2 251 0.0 0.0 0.00 0.28 0.28 89 1017.4
20260503023118 2 251 0.0 0.0 0.00 0.28 0.28 89 1017.3
20260503022614 2 251 0.0 0.0 0.00 0.28 0.28 88 1017.3
20260503022109 2 251 0.0 0.0 0.00 0.28 0.28 87 1017.1
20260503021606 2 251 0.0 0.0 0.00 0.28 0.28 87 1017.1
20260503021103 2 251 0.0 0.0 0.00 0.28 0.28 86 1017.2
20260503020600 2 251 0.0 0.0 0.00 0.28 0.28 86 1017.3
20260503020056 2 251 0.0 0.0 0.00 0.28 0.28 86 1017.2
20260503015554 2 251 0.0 0.0 0.00 0.28 0.28 85 1017.2
20260503015051 2 251 0.0 0.0 0.00 0.28 0.28 85 1017.1